Location: Ergnies
(50.0854°N, 2.0375°E)
Time: 06:51:59
(UTC+00:00)

ATLAS 2AS CENTAUR R/B - Pass Details

Date: 14 January 2026
Orbit: 1050 x 1161 km, 63.7° (Epoch: 10 February)

Event Time Altitude Azimuth Distance (km) Brightness Sun altitude
Exits shadow 04:23:04 33° 357° (N) 1,706 3.7 -31.7°
Maximum altitude 04:24:42 37° 26° (NNE) 1,582 3.7 -31.5°
Drops below altitude 10° 04:30:54 10° 93° (E) 2,866 5.8 -30.5°
Sets 04:33:46 0° 102° (ESE) 3,821 6.7 -30.0°
